Location: Luz Observatory
(34.5000°N, 117.2833°W)
Time: 18:10:48
(UTC-07:00)

Hubble Space Telescope - Visible Passes

Search period start: 04 September 2015 00:00
Search period end: 14 September 2015 00:00
Orbit: 541 x 545 km, 28.5° (Epoch: 04 September)

Date Brightness Start Highest point End Pass type
(mag) Time Alt. Az. Time Alt. Az. Time Alt. Az.
04 Sep 3.0 04:28:41 15° SSE 04:28:41 15° SSE 04:30:39 10° ESE visible
05 Sep 3.0 04:20:17 17° SE 04:20:17 17° SE 04:22:04 10° ESE visible
05 Sep 1.9 05:56:16 10° WSW 06:00:01 33° S 06:03:46 10° ESE visible
06 Sep 3.1 04:11:52 17° SE 04:11:52 17° SE 04:13:21 10° ESE visible
06 Sep 1.8 05:47:19 10° WSW 05:51:01 35° S 05:54:49 10° ESE visible
07 Sep 3.2 04:03:27 16° ESE 04:03:27 16° ESE 04:04:32 10° ESE visible
07 Sep 1.7 05:38:54 14° WSW 05:42:01 35° S 05:45:50 10° ESE visible
08 Sep 3.5 03:55:03 13° ESE 03:55:03 13° ESE 03:55:40 10° ESE visible
08 Sep 1.7 05:30:29 18° WSW 05:33:02 35° S 05:36:50 10° ESE visible
09 Sep 3.8 03:46:40 11° ESE 03:46:40 11° ESE 03:46:46 10° ESE visible
09 Sep 1.7 05:22:06 22° SW 05:24:02 34° S 05:27:48 10° ESE visible
10 Sep 1.7 05:13:46 26° SW 05:15:01 32° S 05:18:44 10° ESE visible
11 Sep 1.8 05:05:29 28° SSW 05:06:01 29° S 05:09:38 10° SE visible
12 Sep 2.0 04:57:15 26° S 04:57:15 26° S 05:00:28 10° SE visible
13 Sep 2.5 04:49:07 20° S 04:49:07 20° S 04:51:15 10° SE visible
